Location: Beaurevoir
(49.9971°N, 3.3085°E)
Time: 13:28:19
(UTC+00:00)

Meteor 1-4 Rocket - Pass Details

Date: 23 May 2024
Orbit: 358 x 379 km, 81.2° (Epoch: 16 June)

Event Time Altitude Azimuth Distance (km) Brightness Sun altitude
Exits shadow 00:53:28 26° 116° (ESE) 754 3.4 -17.7°
Maximum altitude 00:54:01 28° 95° (E) 714 3.5 -17.7°
Drops below altitude 10° 00:56:36 10° 33° (NNE) 1,355 6.0 -17.5°
Sets 00:58:43 0° 22° (NNE) 2,212 7.7 -17.4°
